Location: Powder Track
(41.8531°N, 72.3584°W)
Time: 02:10:33
(UTC+00:00)

Vanguard 1 Rocket - Pass Details

Date: 11 August 2021
Orbit: 650 x 4226 km, 34.3° (Epoch: 16 September)

Event Time Altitude Azimuth Distance (km) Brightness Sun altitude
Rises 11:17:15 0° 226° (SW) 8,083 11.7 14.2°
Reaches altitude 10° 11:22:48 10° 222° (SW) 7,271 11.6 15.2°
Maximum altitude 11:47:25 53° 155° (SSE) 4,503 11.4 19.8°
Drops below altitude 10° 12:05:53 10° 86° (E) 5,683 13.5 23.2°
Sets 12:09:31 0° 81° (E) 6,307 13.1 23.9°
